Miscellaneous Local Product
Issued by NWS North Platte, NE

Home | Current Version | Previous Version | Text Only | Print | Product List | Glossary On
Versions: 1 2 3 4 5 6 7 8 9 10 11 12 13 14 15 16 17 18 19 20 21 22 23 24 25 26 27 28 29 30 31 32 33 34 35 36 37 38 39 40 41 42 43 44 45 46 47 48 49 50
000
AXUS43 KLBF 010710
MISLBF


WESTERN AND NORTH CENTRAL NEBRASKA HOURLY WEATHER ROUNDUP
NATIONAL WEATHER SERVICE NORTH PLATTE NE
100 AM CST SUN FEB 01 2015

***STATIONS NOT REPORTING VARIABLES SUCH AS SKY/WEATHER OR
PRESSURE ARE PROVIDED BY THE NEBRASKA DEPARTMENT OF
ROADS...RAWS...AND APRS NETWORKS...AND ARE NOT UNDER
NATIONAL WEATHER SERVICE QUALITY CONTROL***

...OBSERVATIONS IN AND NEAR THE EASTERN PANHANDLE OF NEBRASKA...

CITY           SKY/WX    TMP DP  RH WIND       PRES   REMARKS
PINE RIDGE     LGT SNOW  13   8  81 N13       30.12R WCI  -2
CHADRON        LGT SNOW  15  12  88 NE10      30.14R FOG     WCI   2
ALLIANCE       CLOUDY    18  15  88 N12       30.03R WCI   5
SIDNEY         MIX PCPN  20  17  88 N22G29    29.99R FOG     WCI   3
WHITECLAY        N/A     12   7  81 E14         N/A  WCI  -3
CRESCENT LAKE    N/A     16  13  86 N13         N/A  WCI   2
LISCO            N/A     23  17  78 W13         N/A  WCI  11
LEWELLEN         N/A     16  11  78 E10         N/A  WCI   4
$$

...OBSERVATIONS IN NORTH CENTRAL NEBRASKA...

CITY           SKY/WX    TMP DP  RH WIND       PRES   REMARKS
VALENTINE      LGT SNOW  11   7  84 N17       30.11R VSB 3/4 WCI  -6
THEDFORD       LGT SNOW  15  12  88 N18G29    30.02R WCI  -1
AINSWORTH      LGT SNOW  12   9  87 N24G32    30.06R WCI  -8
O`NEILL        LGT SNOW  18  16  91 N26       30.01R WCI  -1
ORD            LGT SNOW  22  18  85 N20G29    29.93R FOG     WCI   7
BROKEN BOW     LGT SNOW  20  16  84 N29       29.93R VSB 3/4 WCI   1
BROWNLEE         N/A      9   6  84 S24         N/A  WCI -11
VALENTINE NWR    N/A     13  10  87 N16G30      N/A  WCI  -3
SPRINGVIEW       N/A     11   8  88 N8G26       N/A  WCI  -1
HALSEY           N/A     15  14  94 NW12G20     N/A  WCI   2
BREWSTER         N/A     20  19  94 E16         N/A  WCI   6
ROSE             N/A     20  21 100 E17         N/A  WCI   6
NEWPORT          N/A     20  19  93 W15         N/A  WCI   7
SARGENT          N/A     20  18  91 N7G17       N/A  WCI  11
COMSTOCK         N/A     27  25  91 N18         N/A  WCI  14
CHAMBERS         N/A     18  13  81 N12G20      N/A  WCI   6
EWING            N/A     23  22  96 N8G20       N/A  WCI  14
$$

...OBSERVATIONS IN SOUTHWEST NEBRASKA AND FAR NORTHEAST COLORADO...

CITY           SKY/WX    TMP DP  RH WIND       PRES   REMARKS
WRAY           CLOUDY    24  22  89 N22       29.96R WCI   9
IMPERIAL       LGT SNOW  20  15  81 N22       29.97S WCI   3
OGALLALA       CLOUDY    19  16  87 N13G20    30.01R WCI   6
NORTH PLATTE   CLOUDY    18  14  84 N16G29    29.96R FOG     WCI   3
MCCOOK         LGT SNOW  23  19  85 N23       29.92R FOG     WCI   7
LEXINGTON      LGT SNOW  22  19  89 N25       29.91R WCI   5
BRADY            N/A     17  14  88 MISG        N/A
GOTHENBURG       N/A     19  17  90 N16         N/A  WCI   4
CALLAWAY         N/A     17  15  93 N16         N/A  WCI   2
$$

...NORTH PLATTE AREA...

CITY           SKY/WX    TMP DP  RH WIND       PRES   REMARKS
AIRPORT        CLOUDY    18  14  84 N16G29    29.96R FOG     WCI   3
DOWNTOWN         N/A     16  14  90 N8G17       N/A  WCI   5
$$

...SOME WEATHER OBSERVATIONS FROM AROUND THE REGION...

CITY           SKY/WX    TMP DP  RH WIND       PRES   REMARKS
DENVER         LGT SNOW  29  27  92 N21G29    29.97R VSB 1   WCI  16
LARAMIE        FLURRIES  20  17  88 N14       29.95R WCI   7
CHEYENNE       LGT SNOW  22  16  78 N18G35    29.97R WCI   7
SCOTTSBLUFF    CLOUDY    25  21  85 N10       30.04R WCI  15
RAPID CITY     FLURRIES  10   7  87 N13       30.18R WCI  -5
PIERRE         FLURRIES   9  -1  64 N20       30.26R WCI -10
WINNER         LGT SNOW  10   6  84 N18       30.17R VSB 3/4 WCI  -8
SIOUX FALLS    LGT SNOW  21  18  88 NE22G31   30.05S VSB 1   WCI   5
OMAHA          LGT SNOW  33  32  96 E5        29.84F VSB 3/4 WCI  29
GRAND ISLAND   LGT SNOW  27  25  92 N22       29.86R FOG     WCI  13
KANSAS CITY    LGT SNOW  33  33 100 SE10      29.82F FOG     WCI  25
WICHITA        CLOUDY    41  41 100 SW14      29.77F
HAYS           CLOUDY    34  25  69 N20G26    29.80R WCI  22
LIBERAL        CLOUDY    37  34  87 NW9       29.85S WCI  31
GOODLAND       LGT SNOW  24  22  91 N23G30    29.91R FOG     WCI   9
$$



USA.gov is the U.S. government's official web portal to all federal, state and local government web resources and services.